TimeCST,TemperatureF,Dew PointF,Humidity,Sea Level PressureIn,VisibilityMPH,Wind Direction,Wind SpeedMPH,Gust SpeedMPH,PrecipitationIn,Events,Conditions,WindDirDegrees,DateUTC
12:15 AM,32.0,27.0,82,30.05,10.0,Calm,Calm,-,N/A,,Clear,0,2013-12-28 06:15:00
12:35 AM,33.1,27.3,79,30.04,10.0,Calm,Calm,-,N/A,,Clear,0,2013-12-28 06:35:00
12:55 AM,28.9,26.1,89,30.04,10.0,Calm,Calm,-,N/A,,Clear,0,2013-12-28 06:55:00
1:15 AM,27.0,25.2,93,30.03,10.0,Calm,Calm,-,N/A,,Clear,0,2013-12-28 07:15:00
1:35 AM,27.1,24.8,91,30.04,10.0,Calm,Calm,-,N/A,,Clear,0,2013-12-28 07:35:00
1:55 AM,24.8,23.4,94,30.03,10.0,Calm,Calm,-,N/A,,Clear,0,2013-12-28 07:55:00
2:15 AM,24.6,23.0,94,30.03,10.0,Calm,Calm,-,N/A,,Clear,0,2013-12-28 08:15:00
2:35 AM,25.0,23.2,93,30.03,10.0,Calm,Calm,-,N/A,,Clear,0,2013-12-28 08:35:00
2:55 AM,23.7,21.7,92,30.03,7.0,Calm,Calm,-,N/A,,Clear,0,2013-12-28 08:55:00
3:15 AM,25.2,23.5,94,30.03,7.0,Calm,Calm,-,N/A,,Clear,0,2013-12-28 09:15:00
3:35 AM,24.6,22.3,91,30.02,7.0,Calm,Calm,-,N/A,,Clear,0,2013-12-28 09:35:00
3:55 AM,25.5,23.7,93,30.01,10.0,Calm,Calm,-,N/A,,Clear,0,2013-12-28 09:55:00
4:15 AM,23.7,22.5,95,30.01,5.0,Calm,Calm,-,N/A,,Clear,0,2013-12-28 10:15:00
4:35 AM,21.6,19.9,93,30.00,5.0,Calm,Calm,-,N/A,,Clear,0,2013-12-28 10:35:00
4:55 AM,21.7,20.1,93,30.00,5.0,Calm,Calm,-,N/A,,Clear,0,2013-12-28 10:55:00
5:15 AM,24.6,23.5,96,29.99,5.0,Calm,Calm,-,N/A,,Clear,0,2013-12-28 11:15:00
5:35 AM,23.7,22.6,96,29.99,5.0,Calm,Calm,-,N/A,,Clear,0,2013-12-28 11:35:00
5:55 AM,20.5,18.7,93,29.99,7.0,Calm,Calm,-,N/A,,Clear,0,2013-12-28 11:55:00
6:15 AM,22.1,20.7,94,29.99,5.0,Calm,Calm,-,N/A,,Clear,0,2013-12-28 12:15:00
6:35 AM,22.8,21.6,95,29.99,7.0,South,3.5,-,N/A,,Clear,180,2013-12-28 12:35:00
6:55 AM,19.6,17.6,92,29.99,7.0,Calm,Calm,-,N/A,,Clear,0,2013-12-28 12:55:00
7:15 AM,21.9,20.5,94,29.99,7.0,Calm,Calm,-,N/A,,Clear,0,2013-12-28 13:15:00
7:35 AM,20.3,18.5,93,29.98,4.0,Calm,Calm,-,N/A,,Clear,0,2013-12-28 13:35:00
7:55 AM,21.2,19.4,93,29.97,5.0,Calm,Calm,-,N/A,,Clear,0,2013-12-28 13:55:00
8:15 AM,21.7,20.1,93,29.96,7.0,SSE,3.5,-,N/A,,Clear,150,2013-12-28 14:15:00
8:35 AM,22.5,21.0,94,29.96,10.0,Calm,Calm,-,N/A,,Clear,0,2013-12-28 14:35:00
8:55 AM,22.5,21.0,94,29.95,10.0,Calm,Calm,-,N/A,,Clear,0,2013-12-28 14:55:00
9:15 AM,22.6,21.0,93,29.95,10.0,Calm,Calm,-,N/A,,Clear,0,2013-12-28 15:15:00
9:35 AM,25.2,23.7,94,29.94,10.0,Calm,Calm,-,N/A,,Clear,0,2013-12-28 15:35:00
9:55 AM,30.9,25.2,79,29.93,10.0,Calm,Calm,-,N/A,,Clear,0,2013-12-28 15:55:00
10:15 AM,33.4,25.5,73,29.93,10.0,South,3.5,-,N/A,,Clear,190,2013-12-28 16:15:00
10:35 AM,36.0,26.2,68,29.92,10.0,South,5.8,-,N/A,,Clear,190,2013-12-28 16:35:00
10:55 AM,37.4,26.6,65,29.92,10.0,South,6.9,-,N/A,,Clear,190,2013-12-28 16:55:00
11:15 AM,38.7,26.8,62,29.90,10.0,South,5.8,-,N/A,,Clear,180,2013-12-28 17:15:00
11:35 AM,39.4,27.3,62,29.89,10.0,South,4.6,-,N/A,,Clear,180,2013-12-28 17:35:00
12:15 PM,41.4,27.9,59,29.86,10.0,South,5.8,-,N/A,,Clear,190,2013-12-28 18:15:00
12:35 PM,42.3,27.7,56,29.85,10.0,South,6.9,-,N/A,,Clear,170,2013-12-28 18:35:00
12:55 PM,42.6,28.2,57,29.84,10.0,South,3.5,-,N/A,,Clear,180,2013-12-28 18:55:00
1:15 PM,43.2,28.0,55,29.82,10.0,SSW,4.6,-,N/A,,Clear,200,2013-12-28 19:15:00
1:35 PM,44.1,28.0,53,29.82,10.0,South,6.9,-,N/A,,Clear,170,2013-12-28 19:35:00
1:55 PM,44.6,28.0,52,29.81,10.0,South,6.9,-,N/A,,Clear,190,2013-12-28 19:55:00
2:15 PM,45.0,27.9,51,29.81,10.0,South,8.1,-,N/A,,Clear,190,2013-12-28 20:15:00
2:35 PM,45.1,28.0,51,29.81,10.0,South,4.6,-,N/A,,Clear,190,2013-12-28 20:35:00
2:55 PM,45.7,27.9,50,29.81,10.0,South,3.5,-,N/A,,Clear,180,2013-12-28 20:55:00
3:15 PM,46.2,27.5,48,29.80,10.0,South,5.8,-,N/A,,Clear,190,2013-12-28 21:15:00
3:35 PM,46.8,27.9,48,29.80,10.0,SSE,3.5,-,N/A,,Clear,160,2013-12-28 21:35:00
3:55 PM,46.0,28.2,50,29.80,10.0,SSW,3.5,-,N/A,,Clear,200,2013-12-28 21:55:00
4:15 PM,45.7,28.2,51,29.79,10.0,Calm,Calm,-,N/A,,Clear,0,2013-12-28 22:15:00
4:35 PM,45.1,28.2,52,29.78,10.0,ESE,4.6,-,N/A,,Clear,110,2013-12-28 22:35:00
4:55 PM,45.5,28.4,51,29.77,10.0,SSE,4.6,-,N/A,,Clear,160,2013-12-28 22:55:00
5:15 PM,45.3,28.4,52,29.77,10.0,South,6.9,-,N/A,,Clear,190,2013-12-28 23:15:00
5:35 PM,45.1,28.4,52,29.77,10.0,South,6.9,-,N/A,,Clear,190,2013-12-28 23:35:00
5:55 PM,44.6,28.8,54,29.76,10.0,SSE,5.8,-,N/A,,Clear,160,2013-12-28 23:55:00
6:15 PM,44.6,28.6,53,29.76,10.0,South,3.5,-,N/A,,Clear,170,2013-12-29 00:15:00
6:35 PM,44.2,28.4,54,29.76,10.0,South,6.9,-,N/A,,Clear,180,2013-12-29 00:35:00
6:55 PM,43.7,28.4,55,29.77,10.0,South,3.5,-,N/A,,Clear,180,2013-12-29 00:55:00
7:15 PM,43.7,28.2,54,29.77,10.0,SSW,3.5,-,N/A,,Clear,210,2013-12-29 01:15:00
7:35 PM,43.5,28.2,55,29.77,10.0,Calm,Calm,-,N/A,,Clear,0,2013-12-29 01:35:00
7:55 PM,43.7,28.2,54,29.77,10.0,Calm,Calm,-,N/A,,Clear,0,2013-12-29 01:55:00
8:15 PM,43.3,28.2,55,29.77,10.0,Calm,Calm,-,N/A,,Clear,0,2013-12-29 02:15:00
8:35 PM,42.3,28.4,58,29.77,10.0,Calm,Calm,-,N/A,,Clear,0,2013-12-29 02:35:00
8:55 PM,41.4,28.4,60,29.77,10.0,SSW,4.6,-,N/A,,Clear,200,2013-12-29 02:55:00
9:15 PM,41.4,28.4,60,29.77,10.0,South,3.5,-,N/A,,Clear,190,2013-12-29 03:15:00
9:35 PM,41.5,28.4,60,29.77,10.0,South,3.5,-,N/A,,Clear,180,2013-12-29 03:35:00
9:55 PM,41.0,28.4,61,29.77,10.0,Calm,Calm,-,N/A,,Clear,0,2013-12-29 03:55:00
10:15 PM,41.0,28.8,62,29.77,10.0,Calm,Calm,-,N/A,,Clear,0,2013-12-29 04:15:00
10:35 PM,40.5,29.1,64,29.77,10.0,SW,5.8,-,N/A,,Clear,220,2013-12-29 04:35:00
10:55 PM,39.4,28.9,66,29.77,10.0,WSW,8.1,-,N/A,,Clear,250,2013-12-29 04:55:00
11:15 PM,38.3,28.9,69,29.78,10.0,West,11.5,18.4,N/A,,Clear,260,2013-12-29 05:15:00
11:35 PM,36.5,29.1,75,29.79,10.0,West,19.6,24.2,N/A,,Scattered Clouds,280,2013-12-29 05:35:00
11:55 PM,35.1,29.8,81,29.79,10.0,West,11.5,-,N/A,,Mostly Cloudy,270,2013-12-29 05:55:00